Tracking 32579 objects as of 16-Dec-2025
HD Live streaming from Space Station
objects crossing your sky now

IRIDIUM 33 DEB

Track IRIDIUM 33 DEB now!
10-day predictions


NORAD ID: 36490
Int'l Code: 1997-051WG
Perigee: 644.5 km
Apogee: 652.1 km
Inclination: 86.4 °
Period: 97.5 minutes
Semi major axis: 7019 km
RCS: 0.0086 m2 (small)
Launch date: September 14, 1997
Source: United States (US)
Launch site: TYURATAM MISSILE AND SPACE COMPLEX (TTMTR)

Note: This is SATELLITE DEBRIS
Your satellite tracking list
Your tracking list is empty




NASA's NSSDC Master Catalog

Two Line Element Set (TLE):
1 36490U 97051WG  25349.48990851  .00006728  00000-0  96784-3 0  9991
2 36490  86.3659   9.2231 0005432  77.7006 282.4821 14.76257197865251
Source of the keplerian elements: AFSPC